Weather History for Brenham, TX

Change the Weather History Date:

Monday, July 1, 2013

  Actual Average (KCLL) Record (KCLL)
Temperature  
Mean Temperature 83 °F 84 °F  
Max Temperature 92 °F 93 °F 103 °F (1917)
Min Temperature 74 °F 74 °F 62 °F (1924)
Degree Days  
Heating Degree Days 0 0  
Month to date heating degree days 0  
Since 1 June heating degree days 0  
Since 1 July heating degree days 0  
Cooling Degree Days 18 19  
Month to date cooling degree days 19  
Year to date cooling degree days 1123  
Since 1 June cooling degree days 535  
Growing Degree Days 33 (Base 50)    
Moisture  
Dew Point 54 °F    
Average Humidity 37    
Maximum Humidity 53    
Minimum Humidity 25    
Precipitation  
Precipitation 0.00 in 0.09 in 3.49 in (1936)
Month to date precipitation 0.09  
Year to date precipitation 20.79  
Sea Level Pressure  
Sea Level Pressure 29.95 in    
Wind  
Wind Speed 4 mph (North)    
Max Wind Speed 14 mph    
Max Gust Speed 20 mph    
Visibility 10 miles    
Events      
T = Trace of Precipitation, MM = Missing Value Source: NWS Daily Summary

Daily Weather History Graph

Daily Weather History Graph

Search for Another Location

Airport:

Trip Planner

Search our weather history database for the weather conditions in past years. The results will help you decide how hot, cold, wet, or windy it might be!

Date:

Astronomy

Jul. 01, 2013 Rise Set
Actual Time 6:27 AM CDT 8:31 PM CDT
Civil Twilight 6:00 AM CDT 8:58 PM CDT
Nautical Twilight 5:26 AM CDT 9:31 PM CDT
Astronomical Twilight 4:51 AM CDT 10:07 PM CDT
Moon 1:42 AM CDT (7/1) 3:00 PM CDT (7/1)
Length of Visible Light 14h 58m
Length of Day
14h 03m
Waning Crescent, 35% of the Moon is Illuminated
Jul 1
Waning Crescent
Jul 8
New
Jul 15
First Quarter
Jul 22
Full
Jul 29
Last Quarter

Hourly Weather History & Observations

Time (CDT) Temp. Heat Index Dew Point Humidity Pressure Visibility Wind Dir Wind Speed Gust Speed Precip Events Conditions
12:15 AM 82.9 °F 81.8 °F 53.2 °F 36% 29.89 in 10.0 mi ENE 3.5 mph - N/A   Clear
12:35 AM 82.6 °F 81.5 °F 53.1 °F 36% 29.90 in 10.0 mi NE 3.5 mph - N/A   Clear
12:55 AM 82.2 °F 81.3 °F 53.2 °F 37% 29.90 in 10.0 mi NE 3.5 mph - N/A   Clear
1:15 AM 81.5 °F 80.8 °F 53.6 °F 38% 29.90 in 10.0 mi Calm Calm - N/A   Clear
1:35 AM 80.1 °F 80.0 °F 54.0 °F 40% 29.90 in 10.0 mi Calm Calm - N/A   Clear
1:55 AM 80.1 °F 80.1 °F 54.1 °F 41% 29.90 in 10.0 mi Calm Calm - N/A   Scattered Clouds
2:15 AM 79.9 °F - 54.1 °F 41% 29.90 in 10.0 mi Calm Calm - N/A   Scattered Clouds
2:35 AM 78.4 °F - 54.7 °F 44% 29.90 in 10.0 mi Calm Calm - N/A   Scattered Clouds
2:55 AM 77.9 °F - 55.0 °F 45% 29.91 in 10.0 mi NNE 3.5 mph - N/A   Mostly Cloudy
3:15 AM 78.1 °F - 54.5 °F 44% 29.91 in 10.0 mi North 4.6 mph - N/A   Mostly Cloudy
3:35 AM 77.5 °F - 54.7 °F 45% 29.91 in 10.0 mi Calm Calm - N/A   Scattered Clouds
3:55 AM 77.4 °F - 54.7 °F 45% 29.92 in 10.0 mi Calm Calm - N/A   Scattered Clouds
4:15 AM 77.2 °F - 55.0 °F 46% 29.92 in 10.0 mi Calm Calm - N/A   Scattered Clouds
4:35 AM 76.8 °F - 55.0 °F 47% 29.92 in 10.0 mi Calm Calm - N/A   Scattered Clouds
4:55 AM 76.6 °F - 55.0 °F 47% 29.92 in 10.0 mi Calm Calm - N/A   Scattered Clouds
5:15 AM 76.5 °F - 55.0 °F 47% 29.92 in 10.0 mi Calm Calm - N/A   Clear
5:35 AM 75.4 °F - 55.4 °F 50% 29.93 in 10.0 mi Calm Calm - N/A   Scattered Clouds
5:55 AM 75.2 °F - 55.9 °F 51% 29.93 in 10.0 mi North 3.5 mph - N/A   Mostly Cloudy
6:15 AM 74.5 °F - 56.3 °F 53% 29.93 in 10.0 mi North 3.5 mph - N/A   Mostly Cloudy
6:35 AM 75.4 °F - 55.4 °F 50% 29.94 in 10.0 mi North 4.6 mph - N/A   Mostly Cloudy
6:55 AM 75.2 °F - 55.2 °F 50% 29.95 in 10.0 mi North 4.6 mph - N/A   Scattered Clouds
7:15 AM 75.7 °F - 55.4 °F 49% 29.95 in 10.0 mi North 5.8 mph - N/A   Clear
7:35 AM 77.0 °F - 55.8 °F 48% 29.96 in 10.0 mi Calm Calm - N/A   Clear
7:55 AM 78.3 °F - 55.9 °F 46% 29.96 in 10.0 mi North 3.5 mph - N/A   Clear
8:15 AM 79.3 °F - 55.6 °F 44% 29.97 in 10.0 mi North 8.1 mph - N/A   Clear
8:35 AM 80.1 °F 80.2 °F 55.9 °F 43% 29.97 in 10.0 mi North 9.2 mph - N/A   Clear
8:55 AM 81.3 °F 81.1 °F 56.3 °F 42% 29.97 in 10.0 mi North 9.2 mph - N/A   Clear
9:15 AM 82.2 °F 81.8 °F 56.7 °F 41% 29.98 in 10.0 mi NNE 8.1 mph - N/A   Clear
9:35 AM 83.3 °F 82.8 °F 57.0 °F 41% 29.98 in 10.0 mi North 8.1 mph - N/A   Clear
9:55 AM 84.6 °F 83.7 °F 57.0 °F 39% 29.98 in 10.0 mi North 4.6 mph - N/A   Clear
10:15 AM 85.3 °F 84.1 °F 56.1 °F 37% 29.98 in 10.0 mi North 4.6 mph - N/A   Clear
10:35 AM 86.5 °F 84.9 °F 55.2 °F 34% 29.98 in 10.0 mi North 5.8 mph - N/A   Clear
10:55 AM 87.3 °F - 52.2 °F 30% 29.98 in 10.0 mi North 8.1 mph - N/A   Clear
11:15 AM 88.0 °F 85.7 °F 53.2 °F 30% 29.98 in 10.0 mi North 9.2 mph - N/A   Clear
11:35 AM 88.2 °F - 51.3 °F 28% 29.98 in 10.0 mi NNE 8.1 mph 16.1 mph N/A   Clear
11:55 AM 90.3 °F - 52.3 °F 27% 29.97 in 10.0 mi North 8.1 mph - N/A   Clear
12:15 PM 89.8 °F - 52.3 °F 28% 29.98 in 10.0 mi NNW 11.5 mph 16.1 mph N/A   Clear
12:35 PM 89.1 °F - 51.6 °F 28% 29.97 in 10.0 mi NNE 10.4 mph 17.3 mph N/A   Clear
12:55 PM 90.0 °F - 52.0 °F 27% 29.97 in 10.0 mi NNE 9.2 mph 16.1 mph N/A   Clear
1:15 PM 90.0 °F - 52.2 °F 27% 29.98 in 10.0 mi NNE 10.4 mph 19.6 mph N/A   Scattered Clouds
1:35 PM 89.2 °F 87.1 °F 53.8 °F 30% 29.97 in 10.0 mi North 6.9 mph 18.4 mph N/A   Clear
1:55 PM 89.4 °F 87.5 °F 55.2 °F 31% 29.97 in 10.0 mi NW 13.8 mph 17.3 mph N/A   Scattered Clouds
2:15 PM 89.1 °F - 52.7 °F 29% 29.96 in 10.0 mi North 11.5 mph 17.3 mph N/A   Mostly Cloudy
2:35 PM 89.1 °F 86.7 °F 53.1 °F 29% 29.96 in 10.0 mi North 10.4 mph 19.6 mph N/A   Scattered Clouds
2:55 PM 89.8 °F 87.5 °F 53.8 °F 29% 29.96 in 10.0 mi NNW 12.7 mph - N/A   Scattered Clouds
3:15 PM 89.8 °F 87.5 °F 53.4 °F 29% 29.95 in 10.0 mi North 12.7 mph 18.4 mph N/A   Scattered Clouds
3:35 PM 90.5 °F 88.1 °F 53.4 °F 28% 29.95 in 10.0 mi NNE 8.1 mph 16.1 mph N/A   Scattered Clouds
3:55 PM 92.3 °F - 51.6 °F 25% 29.95 in 10.0 mi North 9.2 mph - N/A   Scattered Clouds
4:15 PM 90.5 °F - 50.5 °F 25% 29.94 in 10.0 mi North 9.2 mph 18.4 mph N/A   Clear
4:35 PM 90.0 °F - 51.1 °F 26% 29.95 in 10.0 mi NNW 8.1 mph - N/A   Clear
4:55 PM 90.9 °F - 51.8 °F 26% 29.95 in 10.0 mi North 8.1 mph 17.3 mph N/A   Clear
5:15 PM 90.0 °F - 52.0 °F 27% 29.94 in 10.0 mi North 8.1 mph - N/A   Clear
5:35 PM 90.7 °F - 52.3 °F 27% 29.93 in 10.0 mi North 5.8 mph - N/A   Clear
5:55 PM 89.8 °F - 51.8 °F 27% 29.93 in 10.0 mi North 8.1 mph - N/A   Clear
6:15 PM 89.4 °F - 52.3 °F 28% 29.93 in 10.0 mi North 5.8 mph - N/A   Clear
6:35 PM 89.2 °F - 52.0 °F 28% 29.93 in 10.0 mi North 8.1 mph - N/A   Clear
6:55 PM 88.7 °F - 52.3 °F 29% 29.94 in 10.0 mi North 4.6 mph - N/A   Clear
7:15 PM 89.1 °F - 52.0 °F 28% 29.94 in 10.0 mi North 5.8 mph - N/A   Clear
7:35 PM 88.7 °F - 52.0 °F 28% 29.94 in 10.0 mi North 3.5 mph - N/A   Clear
7:55 PM 87.8 °F - 52.3 °F 30% 29.95 in 10.0 mi Calm Calm - N/A   Clear
8:15 PM 86.7 °F - 52.9 °F 31% 29.95 in 10.0 mi NNW 4.6 mph - N/A   Clear
8:35 PM 85.8 °F - 52.7 °F 32% 29.95 in 10.0 mi NNW 6.9 mph - N/A   Scattered Clouds
8:55 PM 84.4 °F 82.8 °F 53.1 °F 34% 29.95 in 10.0 mi North 5.8 mph - N/A   Clear
9:15 PM 83.5 °F 82.1 °F 53.1 °F 35% 29.95 in 10.0 mi NNW 3.5 mph - N/A   Clear
9:35 PM 82.4 °F 81.4 °F 53.6 °F 37% 29.95 in 10.0 mi NNW 4.6 mph - N/A   Clear
9:55 PM 82.4 °F 81.4 °F 53.6 °F 37% 29.96 in 10.0 mi NNW 4.6 mph - N/A   Clear
10:15 PM 81.9 °F 81.1 °F 53.8 °F 38% 29.96 in 10.0 mi NNW 5.8 mph - N/A   Clear
10:35 PM 81.5 °F 80.9 °F 54.0 °F 39% 29.97 in 10.0 mi NNW 5.8 mph - N/A   Clear
10:55 PM 80.6 °F 80.4 °F 54.3 °F 40% 29.97 in 10.0 mi NNW 3.5 mph - N/A   Clear
11:15 PM 79.0 °F - 54.7 °F 43% 29.98 in 10.0 mi NNW 4.6 mph - N/A   Clear
11:35 PM 78.1 °F - 55.4 °F 45% 29.98 in 10.0 mi Calm Calm - N/A   Clear
11:55 PM 76.3 °F - 57.0 °F 51% 29.98 in 10.0 mi Calm Calm - N/A   Clear